Regional Weather Roundup
Issued by NWS

Home | Current Version | Previous Version | Graphics & Text | Print | Product List | Glossary On
Versions: 1 2 3 4 5 6 7 8 9 10 11 12 13 14 15 16 17 18 19 20 21 22 23 24 25 26 27 28 29 30 31 32 33 34 35 36 37 38 39 40 41 42 43 44 45 46 47 48 49 50
000
ASUS43 KMPX 280101
RWRMN
WEATHER ROUNDUP FOR MINNESOTA
NATIONAL WEATHER SERVICE TWIN CITIES/CHANHASSEN MN
800 PM CDT FRI MAY 27 2016


NOTE: "FAIR" INDICATES FEW OR NO CLOUDS BELOW 12,000 FEET WITH NO
SIGNIFICANT WEATHER AND/OR OBSTRUCTIONS TO VISIBILITY. N/A MEANS
CURRENT SKY AND/OR WEATHER CONDITIONS ARE NOT AVAILABLE.

MNZ060>063-068>070-280200-
   Twin Cities Metro

CITY           SKY/WX    TMP DP  RH WIND       PRES   REMARKS
TWIN CITIES    PTCLDY    65  60  84 N7        29.74S
ST PAUL        MOCLDY    66  62  87 N6        29.74S
CRYSTAL        CLOUDY    64  59  83 N5        29.73F
BLAINE         CLOUDY    64  64 100 NW5       29.75S
EDEN PRAIRIE   PTCLDY    66  60  81 N7        29.73S
SOUTH ST PAUL  MOCLDY    67  62  86 N6        29.73F
LAKE ELMO      MOCLDY    64  63  94 NW6       29.75S
$$
MNZ001>005-007-008-013>017-022>024-027-028-280200-
   Northwest Minnesota

CITY           SKY/WX    TMP DP  RH WIND       PRES   REMARKS
BEMIDJI        CLOUDY    63  56  78 SE9       29.82F
HALLOCK        PTSUNNY   70  59  68 SE15G22   29.78R
ROSEAU         RAIN      63  57  82 CALM      29.82S
WARROAD        CLOUDY    63  61  94 SE3       29.83S
THIEF RVR FALL CLOUDY    64  55  72 E10       29.81R
CROOKSTON      CLOUDY    63  61  94 SE12      29.77S
FOSSTON        CLOUDY    63  54  72 SE10      29.81R
DETROIT LAKES  CLOUDY    63  55  77 SE16      29.81R
MOORHEAD       LGT RAIN  63  61  94 CALM      29.77F
PARK RAPIDS    CLOUDY    64  55  72 E7        29.81S
MAHNOMEN       FAIR      64  55  72 SE12      29.79R
$$
MNZ006-009>011-018-025>026-280200-
   North Central Minnesota

CITY           SKY/WX    TMP DP  RH WIND       PRES   REMARKS
BAUDETTE       MOCLDY    67  54  63 E10       29.83S
FLAG ISLAND    DRIZZLE   63  59  88 CALM      29.83S
INTL FALLS     CLOUDY    65  53  65 E6        29.84S
WASKISH        CLOUDY    66  55  68 SE3       29.83S
BIG FORK       CLOUDY    61  55  82 CALM      29.83F
LONGVILLE      CLOUDY    61  57  88 CALM      29.82F
GRAND RAPIDS   CLOUDY    60  52  74 CALM      29.82F
CRANE LAKE     CLOUDY    63  54  72 NW3       29.85R
ORR            CLOUDY    59  55  88 CALM      29.80F
COOK           CLOUDY    61  57  88 CALM      29.83F
WALKER         CLOUDY    61  57  85 E3        29.82F
$$
MNZ012-019>021-037-280200-
   Northeast Minnesota

CITY           SKY/WX    TMP DP  RH WIND       PRES   REMARKS
DULUTH         CLOUDY    55  53  93 E12       29.81F
ELY            RAIN      59  55  88 E6        29.85F
HIBBING        CLOUDY    59  56  89 E7        29.81F
EVELETH        CLOUDY    59  55  88 E6        29.84F
DULUTH HARBOR  CLOUDY    46  46 100 NE13      29.83F
TWO HARBORS    CLOUDY    59  54  82 E8        29.82S
SILVER BAY     LGT RAIN  55  54  94 CALM      29.82F
GRAND MARAIS     N/A     45  43  93 CALM      29.87F
G MARAIS ARPRT LGT RAIN  55  48  76 N6        29.89F
$$
MNZ029>031-032-039>041-046>048-054>057-064-280200-
   West Central Minnesota

CITY           SKY/WX    TMP DP  RH WIND       PRES   REMARKS
FERGUS FALLS   CLOUDY    66  57  72 SE9       29.74S
WHEATON        CLOUDY    70  61  73 NW13      29.77S
MORRIS         RAIN      66  61  82 E10       29.74R
ALEXANDRIA     CLOUDY    61  58  90 E9        29.79R
ELBOW LAKE     MOCLDY    64  59  85 SE10G17   29.77S
WADENA         MOCLDY    61  55  82 E6        29.80S
GLENWOOD       MOCLDY    63  59  88 E13G20    29.77R
APPLETON       PTCLDY    72  61  68 E10       29.71S
ORTONVILLE     PTCLDY    68  57  68 N12       29.74R
MADISON        CLEAR     70  59  68 N13       29.72S
WILLMAR        FAIR      64  61  88 E14G20    29.75S
$$
MNZ033>034-036-042>043-049>051-058-059-280200-
   Central Minnesota

CITY           SKY/WX    TMP DP  RH WIND       PRES   REMARKS
ST CLOUD       CLOUDY    61  59  93 NE6       29.76F
SAUK CENTRE    CLOUDY    62  58  87 E9        29.77S
PAYNESVILLE    PTCLDY    62  60  93 E10       29.76F
AITKIN         CLOUDY    63  55  77 E6        29.78F
PINE RIVER     CLOUDY    61  57  88 E9        29.85S
BRAINERD       CLOUDY    60  58  92 E7        29.79F
STAPLES        CLOUDY    61  57  88 NE3       29.80S
LONG PRAIRIE   CLOUDY    59  55  88 N9        29.78S
LITTLE FALLS   MOCLDY    59  55  88 E8        29.77F
LITCHFIELD     CLOUDY    63  63 100 NE8       29.75F
BUFFALO        CLOUDY    62  58  87 N7        29.76F
MAPLE LAKE     CLOUDY    62  61  96 N6        29.77F
HUTCHINSON     CLOUDY    63  62  95 NE9       29.75F
$$
MNZ037-044-045-052-053-280200-
   East Central Minnesota

CITY           SKY/WX    TMP DP  RH WIND       PRES   REMARKS
PRINCETON      CLOUDY    61  57  88 N10       29.77S
MORA           CLOUDY    55  54  94 NE6       29.80S
CAMBRIDGE      CLOUDY    61  52  72 N5        29.75S
RUSH CITY      CLOUDY    59  56  92 N7        29.77R
MOOSE LAKE     CLOUDY    52  50  93 NE6       29.79F FOG
HINCKLEY       CLOUDY    55  55 100 N7        29.79R
CLOQUET        CLOUDY    52  50  93 E3        29.82F
MCGREGOR       CLOUDY    61  57  88 NE6       29.80F
$$
MNZ071>073-080-081-089-090-097-098-280200-
   Southwest Minnesota

CITY           SKY/WX    TMP DP  RH WIND       PRES   REMARKS
MONTEVIDEO     PTCLDY    70  59  68 SE13      29.74R
GRANITE FALLS  CLOUDY    73  59  61 NE12      29.73R
CANBY          CLEAR     72  61  67 W7        29.74R
REDWOOD FALLS  CLEAR     69  60  73 VRB3      29.72R
OLIVIA         PTCLDY    64  59  82 E6        29.73R
PIPESTONE      PTCLDY    72  55  56 SE5       29.73S
WINDOM         PTCLDY    72  57  60 CALM      29.73R
WORTHINGTON    MOCLDY    71  57  61 E7        29.73R
JACKSON        MOCLDY    72  55  56 NE6       29.74R
TRACY          PTCLDY    70  60  70 E7        29.73R
SLAYTON        MOCLDY    72  55  56 NE8       29.74S
$$
MNZ065>067-074>077-082>085-091>093-280200-
   South Central Minnesota

CITY           SKY/WX    TMP DP  RH WIND       PRES   REMARKS
MANKATO        PTCLDY    70  61  73 E8        29.73S
NEW ULM        PTCLDY    66  63  88 E10G17    29.74R
ST JAMES       CLEAR     66  55  68 CALM      29.74R
FAIRMONT       CLEAR     73  57  56 NE6       29.72S
GLENCOE        PTCLDY    65  63  91 NE3       29.74F
FARIBAULT      PTCLDY    66  63  88 CALM      29.75R
OWATONNA       CLEAR     66  61  82 NE5       29.75R
WASECA         CLEAR     68  61  77 NE7       29.76R
ALBERT LEA     CLEAR     70  61  73 CALM      29.75R
$$
MNZ078>079-086>088-094>096-280200-
   Southeast Minnesota

CITY           SKY/WX    TMP DP  RH WIND       PRES   REMARKS
ROCHESTER      CLEAR     68  64  87 NW6       29.75S
RED WING       PTCLDY    70  64  83 N3        29.72S
STANTON        MOCLDY    68  62  80 CALM      29.73S
DODGE CENTER   CLEAR     66  63  88 N7        29.75S
WINONA         CLOUDY    70  64  83 NW3       29.73S
AUSTIN         CLEAR     70  63  78 CALM      29.75R
PRESTON        PTCLDY    69  63  82 N3        29.75R
$$
ABBREVIATIONS USED IN REMARKS
   TC - TEMPERATURES IN CELSIUS
  WCI - WIND CHILL INDEX
   HX - HEAT INDEX
  VSB - VISIBILITY
$$



USA.gov is the U.S. government's official web portal to all federal, state and local government web resources and services.